Weather History for Macomb, IL

Change the Weather History Date:

Thursday, May 9, 2013

  Actual Average (KBRL) Record (KBRL)
Temperature  
Mean Temperature 66 °F 61 °F  
Max Temperature 71 °F 72 °F 92 °F (1963)
Min Temperature 61 °F 51 °F 31 °F (1966)
Degree Days  
Heating Degree Days 0 5  
Month to date heating degree days 55  
Since 1 July heating degree days 5517  
Cooling Degree Days 1 2  
Month to date cooling degree days 11  
Year to date cooling degree days 31  
Growing Degree Days 16 (Base 50)    
Moisture  
Dew Point 63 °F    
Average Humidity 88    
Maximum Humidity 100    
Minimum Humidity 70    
Precipitation  
Precipitation 0.00 in 0.16 in 1.56 in (1950)
Month to date precipitation 1.44  
Year to date precipitation 10.85  
Sea Level Pressure  
Sea Level Pressure 29.89 in    
Wind  
Wind Speed 8 mph (South)    
Max Wind Speed 16 mph    
Max Gust Speed 22 mph    
Visibility 9 miles    
Events Rain , Thunderstorm    
T = Trace of Precipitation, MM = Missing Value Source: NWS Daily Summary

Daily Weather History Graph

Daily Weather History Graph

Search for Another Location

Airport:

Trip Planner

Search our weather history database for the weather conditions in past years. The results will help you decide how hot, cold, wet, or windy it might be!

Date:

Astronomy

May. 09, 2013 Rise Set
Actual Time 5:51 AM CDT 8:06 PM CDT
Civil Twilight 5:21 AM CDT 8:37 PM CDT
Nautical Twilight 4:44 AM CDT 9:14 PM CDT
Astronomical Twilight 4:03 AM CDT 9:56 PM CDT
Moon 5:36 AM CDT (5/9) 8:02 PM CDT (5/9)
Length of Visible Light 15h 15m
Length of Day
14h 14m
Waning Crescent, 0% of the Moon is Illuminated
May 9
Waning Crescent
May 9
New
May 17
First Quarter
May 24
Full
May 31
Last Quarter

Hourly Weather History & Observations

Time (CDT) Temp. Dew Point Humidity Pressure Visibility Wind Dir Wind Speed Gust Speed Precip Events Conditions
1:55 AM 63.1 °F 58.3 °F 84% 29.97 in 10.0 mi Calm Calm - N/A   Overcast
2:35 AM 64.4 °F 59.0 °F 83% 29.96 in 10.0 mi ESE 3.5 mph - N/A   Overcast
2:55 AM 63.9 °F 59.0 °F 84% 29.96 in 10.0 mi East 4.6 mph - N/A   Overcast
3:15 AM 63.1 °F 59.4 °F 87% 29.96 in 7.0 mi East 4.6 mph - N/A Rain Light Rain
4:55 AM 63.5 °F 59.5 °F 87% 29.95 in 10.0 mi South 3.5 mph - N/A   Overcast
6:35 AM 61.9 °F 60.3 °F 94% 30.00 in 4.0 mi Calm Calm - N/A Rain , Thunderstorm Rain
6:55 AM 61.7 °F 60.3 °F 95% 29.97 in 3.0 mi ENE 11.5 mph - N/A Rain Rain
7:15 AM 61.3 °F 60.3 °F 96% 29.94 in 7.0 mi ENE 12.7 mph - N/A Rain Light Rain
8:15 AM 62.6 °F 61.9 °F 97% 29.95 in 10.0 mi SE 8.1 mph - N/A   Scattered Clouds
9:55 AM 68.0 °F 63.7 °F 86% 29.94 in 10.0 mi SE 13.8 mph - N/A   Mostly Cloudy
10:15 AM 68.7 °F 63.9 °F 84% 29.93 in 10.0 mi ESE 15.0 mph - N/A   Overcast
10:35 AM 69.6 °F 63.9 °F 82% 29.92 in 10.0 mi SE 15.0 mph - N/A   Mostly Cloudy
10:55 AM 70.9 °F 63.9 °F 78% 29.92 in 10.0 mi SSE 16.1 mph 20.7 mph N/A   Mostly Cloudy
11:15 AM 70.7 °F 61.7 °F 73% 29.92 in 10.0 mi SSE 16.1 mph - N/A   Overcast
11:35 AM 71.2 °F 61.0 °F 70% 29.93 in 10.0 mi SSE 16.1 mph - N/A Thunderstorm Overcast
11:55 AM 70.0 °F 61.3 °F 74% 29.93 in 10.0 mi SSE 15.0 mph - N/A Rain Light Rain
12:15 PM 68.0 °F 61.5 °F 80% 29.92 in 10.0 mi SSE 13.8 mph - N/A Rain Light Rain
12:35 PM 65.7 °F 62.6 °F 90% 29.91 in 10.0 mi South 16.1 mph 21.9 mph N/A   Light Drizzle
12:55 PM 67.1 °F 63.1 °F 87% 29.90 in 10.0 mi South 10.4 mph - N/A   Overcast
1:15 PM 67.3 °F 63.3 °F 87% 29.90 in 10.0 mi South 9.2 mph - N/A   Mostly Cloudy
1:35 PM 67.3 °F 63.7 °F 88% 29.90 in 10.0 mi South 11.5 mph - N/A   Mostly Cloudy
1:55 PM 66.7 °F 63.3 °F 89% 29.90 in 10.0 mi South 15.0 mph - N/A   Overcast
2:15 PM 66.7 °F 63.1 °F 88% 29.90 in 10.0 mi SSE 15.0 mph - N/A   Overcast
2:35 PM 65.5 °F 62.8 °F 91% 29.89 in 7.0 mi South 16.1 mph - N/A Rain Light Rain
2:55 PM 65.5 °F 63.5 °F 93% 29.88 in 7.0 mi South 11.5 mph - N/A Rain Light Rain
3:15 PM 65.7 °F 63.5 °F 93% 29.88 in 10.0 mi SSE 9.2 mph - N/A Rain Light Rain
3:35 PM 66.4 °F 63.5 °F 90% 29.87 in 10.0 mi SSE 10.4 mph - N/A Rain Light Rain
3:55 PM 66.6 °F 64.0 °F 92% 29.87 in 10.0 mi South 10.4 mph - N/A Rain Light Rain
4:15 PM 66.9 °F 64.4 °F 92% 29.86 in 10.0 mi SSE 9.2 mph - N/A Rain Light Rain
4:35 PM 66.7 °F 63.9 °F 90% 29.86 in 10.0 mi South 8.1 mph - N/A   Overcast
4:55 PM 67.1 °F 63.7 °F 89% 29.85 in 10.0 mi South 8.1 mph - N/A   Overcast
5:15 PM 67.5 °F 64.0 °F 89% 29.85 in 10.0 mi South 8.1 mph - N/A   Overcast
5:35 PM 68.9 °F 63.9 °F 84% 29.83 in 10.0 mi South 10.4 mph - N/A   Mostly Cloudy
5:55 PM 69.1 °F 64.4 °F 85% 29.83 in 10.0 mi South 11.5 mph - N/A   Mostly Cloudy
6:15 PM 68.9 °F 63.3 °F 82% 29.84 in 10.0 mi South 12.7 mph - N/A   Mostly Cloudy
6:35 PM 68.5 °F 63.3 °F 83% 29.85 in 10.0 mi SSW 9.2 mph - N/A   Overcast
6:55 PM 68.2 °F 63.1 °F 84% 29.84 in 10.0 mi SW 6.9 mph - N/A   Overcast
7:15 PM 68.0 °F 63.5 °F 85% 29.85 in 10.0 mi SSW 6.9 mph - N/A Rain Rain
7:35 PM 67.1 °F 63.7 °F 89% 29.85 in 5.0 mi SSW 5.8 mph - N/A Rain , Thunderstorm Rain
7:55 PM 66.6 °F 64.0 °F 92% 29.85 in 7.0 mi SW 9.2 mph - N/A Rain Rain
8:15 PM 66.2 °F 63.7 °F 92% 29.85 in 10.0 mi SW 6.9 mph - N/A   Overcast
8:35 PM 66.2 °F 63.7 °F 92% 29.84 in 10.0 mi SSW 5.8 mph - N/A   Overcast
8:55 PM 66.6 °F 63.1 °F 89% 29.85 in 10.0 mi WSW 10.4 mph - N/A   Overcast
9:15 PM 65.7 °F 63.5 °F 93% 29.85 in 10.0 mi SW 6.9 mph - N/A   Overcast
9:35 PM 65.7 °F 63.7 °F 93% 29.86 in 10.0 mi WSW 9.2 mph - N/A   Overcast
9:55 PM 65.7 °F 63.5 °F 93% 29.86 in 10.0 mi WSW 9.2 mph - N/A   Overcast
10:15 PM 65.3 °F 63.1 °F 93% 29.86 in 7.0 mi WSW 9.2 mph - N/A   Overcast
10:35 PM 64.9 °F 63.1 °F 94% 29.86 in 4.0 mi WSW 12.7 mph 16.1 mph N/A Rain Heavy Rain
10:55 PM 63.5 °F 62.2 °F 96% 29.86 in 10.0 mi West 10.4 mph - N/A Rain Light Rain
11:15 PM 64.4 °F 62.6 °F 94% 29.86 in 10.0 mi WSW 8.1 mph - N/A   Clear
11:35 PM 62.6 °F 62.6 °F 100% 29.86 in 10.0 mi WSW 8.1 mph - N/A   Clear
11:55 PM 62.2 °F 61.7 °F 98% 29.86 in 7.0 mi WSW 6.9 mph - N/A   Clear